Weather in Nutepelmen

Russia / Chukotka Autonomous Okrug     67°25′31″N   174°55′29″W
temp.,
°C
wind,
m/s
gust,
m/s
humid.,
%
clouds,
%
prec.,
mm/h
press.,
hPa
HPBL,
m
24 april, sat
sat2400:00−4nw2386100 0.0 101629
03:00−6w3492100 0.0 101766
06:00−6w3594100 0.0 1018148
09:00−3w3489100 0.0 1018272
12:00−2w338686 0.0 1017338
15:00−1w228598 0.0 1017263
18:00−3ssw11907 0.0 101610
21:00−8s229940 0.0 101513
25 april, sun
sun2500:00−9s229956 0.0 101526
03:00−10s3310079 0.0 101443
06:00−8s339458 0.0 101372
09:00−3s348287 0.0 1013104
12:000s33919 0.0 101350
15:00+1s229392 0.0 101226
18:000ssw229286 0.0 101116
21:00−2sw229899 0.0 101157
26 april, mon
mon2600:00−3sw2297100 0.0 101168
03:00−4wsw2299100 0.0 101184
06:00−6w2396100 0.0 101161
09:00−3w2387100 0.0 1012140
12:00−2w3484100 0.0 1012305
15:00−1wnw2386100 0.0 1012393
18:00−2wnw2393100 0.0 101269
21:00−3w2397100 0.0 101376
27 april, tue
tue2700:00−2nw2393100 0.1 101372
03:00−2nnw2389100 0.1 101444
06:00−2nw2391100 0.1 1014197
09:00−1wnw2390100 0.0 1014401
12:00−1nw2388100 0.1 1014428
15:00−1nnw2386100 0.0 1014336
18:00−1nnw1182100 0.0 1014195
21:00−1wnw2283100 0.0 101512
28 april, wed
wed2800:00−2nnw1183100 0.0 101610
03:00−2nne118599 0.0 101613
06:00−2n1181100 0.1 1016412
09:00−2nne1184100 0.0 1017308
12:00−1n2386100 0.0 1017357
15:00−1n3487100 0.0 1017424
18:00−2nnw3594100 0.1 1018302
21:00−2nw3698100 0.6 1019212